TimeEDT,TemperatureF,Dew PointF,Humidity,Sea Level PressureIn,VisibilityMPH,Wind Direction,Wind SpeedMPH,Gust SpeedMPH,PrecipitationIn,Events,Conditions,WindDirDegrees,DateUTC
12:53 AM,62.1,55.9,80,29.91,6.0,ENE,5.8,-,N/A,,Haze,60,2013-06-08 04:53:00
1:53 AM,61.0,55.9,83,29.91,5.0,Calm,Calm,-,N/A,,Haze,0,2013-06-08 05:53:00
2:53 AM,59.0,55.9,90,29.91,4.0,Calm,Calm,-,N/A,,Clear,0,2013-06-08 06:53:00
3:53 AM,59.0,55.9,90,29.92,4.0,Calm,Calm,-,N/A,,Mostly Cloudy,0,2013-06-08 07:53:00
4:53 AM,59.0,55.9,90,29.92,4.0,Calm,Calm,-,N/A,,Overcast,0,2013-06-08 08:53:00
5:53 AM,57.9,55.9,93,29.94,4.0,Calm,Calm,-,N/A,,Overcast,0,2013-06-08 09:53:00
6:40 AM,57.2,55.4,94,29.96,2.5,Calm,Calm,-,N/A,,Mostly Cloudy,0,2013-06-08 10:40:00
6:53 AM,57.9,55.9,93,29.96,3.0,Calm,Calm,-,N/A,,Mostly Cloudy,0,2013-06-08 10:53:00
7:53 AM,60.1,55.9,86,29.97,3.0,Calm,Calm,-,N/A,,Partly Cloudy,0,2013-06-08 11:53:00
8:53 AM,63.0,57.0,81,29.98,4.0,Calm,Calm,-,N/A,,Haze,0,2013-06-08 12:53:00
9:53 AM,66.0,57.9,75,29.99,5.0,Calm,Calm,-,N/A,,Haze,0,2013-06-08 13:53:00
10:53 AM,70.0,59.0,68,29.99,9.0,Calm,Calm,-,N/A,,Partly Cloudy,0,2013-06-08 14:53:00
11:53 AM,71.1,57.0,61,30.01,10.0,Calm,Calm,-,N/A,,Scattered Clouds,0,2013-06-08 15:53:00
12:53 PM,71.1,57.9,63,30.00,10.0,Calm,Calm,-,N/A,,Mostly Cloudy,0,2013-06-08 16:53:00
1:53 PM,73.9,59.0,59,30.00,10.0,Calm,Calm,-,N/A,,Partly Cloudy,0,2013-06-08 17:53:00
2:53 PM,75.0,59.0,57,29.99,10.0,NE,3.5,-,N/A,,Mostly Cloudy,50,2013-06-08 18:53:00
3:53 PM,77.0,60.1,56,29.98,10.0,Calm,Calm,-,N/A,,Scattered Clouds,0,2013-06-08 19:53:00
4:53 PM,75.9,60.1,58,29.98,10.0,East,3.5,-,N/A,,Scattered Clouds,80,2013-06-08 20:53:00
5:53 PM,78.1,61.0,56,29.98,10.0,East,5.8,-,N/A,,Mostly Cloudy,80,2013-06-08 21:53:00
6:53 PM,77.0,62.1,60,29.97,10.0,Calm,Calm,-,N/A,,Scattered Clouds,0,2013-06-08 22:53:00
7:53 PM,73.9,63.0,68,29.99,10.0,ENE,3.5,-,N/A,,Overcast,60,2013-06-08 23:53:00
8:53 PM,71.1,64.0,78,30.00,10.0,Calm,Calm,-,N/A,,Scattered Clouds,0,2013-06-09 00:53:00
9:53 PM,70.0,64.9,84,30.02,10.0,Calm,Calm,-,N/A,,Overcast,0,2013-06-09 01:53:00
10:53 PM,70.0,64.9,84,30.03,10.0,NE,4.6,-,N/A,,Overcast,50,2013-06-09 02:53:00
11:53 PM,69.1,64.0,84,30.03,10.0,Calm,Calm,-,N/A,,Overcast,0,2013-06-09 03:53:00